[[{"header":{"parameterUnit":"m.s-1","parameterCategory":1,"la1":30.2991,"la2":30.254,"lo1":-89.0895,"lo2":-89.0444,"dy":0.0017,"dx":0.0017,"nx":28,"ny":28,"refTime":"2024-02-17T09:00:00:Z","depth":0,"parameterNumber":2,"parameterNumberName":"U-component_of_WINDS"},"data":[0,0,0,0,0,0,0,0,0,0,0,0,0,0,0,0,0,0,0,0,0,0,0,0,0,0,0,0,0,0,0,0,0,0,0,0,0,0,0,0,0,0,0,0,0,0,0,0,0,0,0,0,0,0,0,0,0,0,-1.0784,-1.0785,0,-1.0914,-1.0915,-1.0917,-1.0925,-1.0924,-1.0922,-1.0921,-1.1055,-1.1059,-1.1064,0,0,0,0,0,0,0,0,0,0,0,0,0,-1.0542,-1.0547,-1.0784,-1.0785,-1.0787,-1.0914,-1.0915,-1.0917,-1.0926,-1.0924,-1.0922,-1.092,-1.1053,-1.1059,-1.1065,0,0,0,0,0,0,0,0,0,0,0,0,0,-1.0657,-1.0548,-1.0783,-1.0806,-1.081,-1.0913,-1.0915,-1.0918,-1.0926,-1.0924,-1.0922,-1.0919,-1.1051,-1.1058,-1.1066,-1.1155,0,0,-1.1088,-1.1091,0,0,0,0,0,0,0,0,-1.0651,-1.0666,-1.0801,-1.0805,-1.0809,-1.0901,-1.0879,-1.0997,-1.0926,-1.0882,-1.0921,-1.0918,-1.1005,-1.1016,-1.1046,-1.1161,-1.1167,-1.1089,-1.1093,-1.1096,-1.1098,0,0,0,0,0,0,0,-1.0643,-1.0661,-1.0835,-1.0803,-1.0808,-1.081,-1.0824,-1.0902,-1.0954,-1.0886,-1.0887,-1.0902,-1.1007,-1.1038,-1.1049,-1.1169,-1.1089,-1.1095,-1.11,-1.1103,-1.1364,-1.1366,0,0,0,0,0,0,-1.063,-1.0654,-1.0831,-1.0839,-1.0723,-1.0816,-1.0832,-1.0874,-1.0954,-1.0964,-1.0903,-1.0902,-1.1027,-1.104,-1.1053,-1.1164,-1.1096,-1.1103,-1.1107,-1.1361,-1.1364,-1.1367,0,0,0,0,0,0,-1.0625,-1.0646,-1.0826,-1.0747,-1.077,-1.0823,-1.087,-1.0877,-1.0909,-1.0967,-1.0976,-1.0926,-1.1026,-1.1043,-1.113,-1.1168,-1.1107,-1.1113,-1.1358,-1.1362,-1.1366,-1.1385,0,0,0,0,0,0,-1.0618,-1.0644,-1.0679,-1.0748,-1.0774,-1.09,-1.0872,-1.0882,-1.0922,-1.092,-1.0991,-1.1,-1.1025,-1.1118,-1.1137,-1.1177,-1.1119,-1.1355,-1.136,-1.1364,-1.1381,-1.1389,-1.1395,0,0,0,0,0,-1.061,-1.0679,-1.0681,-1.0702,-1.0819,-1.0902,-1.0917,-1.0945,-1.0925,-1.096,-1.0997,-1.0998,-1.1161,-1.1127,-1.1148,-1.1191,-1.1353,-1.1359,-1.1364,-1.1378,-1.1387,-1.1395,0,0,0,0,0,0,-1.0615,-1.0689,-1.0691,-1.0785,-1.0837,-1.0904,-1.0949,-1.0954,-1.1013,-1.101,-1.1041,-1.1057,-1.1142,-1.1175,-1.1137,-1.1282,-1.1255,-1.1265,-1.1258,-1.1267,-1.1274,-1.1265,-1.1125,0,0,0,0,0,-1.0627,-1.0688,-1.075,-1.0827,-1.0853,-1.0896,-1.0934,-1.095,-1.1005,-1.1028,-1.1071,-1.1125,-1.1188,-1.1229,-1.129,-1.1385,-1.14,-1.1425,-1.1432,-1.1437,-1.1446,-1.1498,-1.151,-1.1386,-1.1386,-1.1385,0,0,-1.0652,-1.07,-1.0738,-1.0829,-1.0871,-1.0935,-1.0915,-1.0983,-1.103,-1.1038,-1.1123,-1.1156,-1.1218,-1.1308,-1.1351,-1.1339,-1.1484,-1.1445,-1.1449,-1.1455,-1.1505,-1.1517,-1.1528,-1.1389,-1.1389,-1.1388,0,0,-1.0732,-1.0774,-1.0843,-1.0885,-1.0949,-1.0978,-1.0994,-1.1059,-1.1082,-1.1167,-1.1174,-1.123,-1.1338,-1.1382,-1.1418,-1.1512,-1.1515,-1.1531,-1.1569,-1.162,-1.1629,-1.1638,-1.1672,-1.1684,-1.1539,-1.1539,-1.1539,0,-1.0756,-1.0852,-1.0878,-1.0946,-1.0986,-1.0995,-1.1065,-1.1104,-1.1185,-1.1212,-1.1197,-1.1333,-1.1375,-1.1476,-1.1499,-1.1527,-1.1547,-1.1524,-1.1626,-1.1635,-1.1644,-1.1677,-1.1689,-1.1541,-1.1541,-1.154,-1.154,0,-1.0878,-1.0944,-1.0992,-1.107,-1.1115,-1.1183,-1.1219,-1.1262,-1.1273,-1.1303,-1.1389,-1.1439,-1.1511,-1.1535,-1.1548,-1.1638,-1.1629,-1.1619,-1.1593,-1.1657,-1.1688,-1.1701,-1.1543,-1.1542,-1.1542,-1.1542,0,0,-1.0967,-1.1057,-1.1074,-1.1109,-1.1179,-1.1231,-1.1299,-1.1369,-1.1404,-1.1459,-1.1517,-1.1607,-1.1599,-1.164,-1.1657,-1.1701,-1.1772,-1.1686,-1.1688,-1.1701,-1.1875,-1.1883,-1.1897,-1.1774,-1.1776,-1.1778,-1.187,0,-1.1055,-1.1177,-1.1202,-1.1308,-1.1369,-1.1377,-1.1437,-1.1486,-1.1515,-1.1571,-1.1602,-1.1666,-1.165,-1.1675,-1.1718,-1.1754,-1.1808,-1.1748,-1.1829,-1.1831,-1.1815,-1.1913,-1.1922,-1.2006,-1.1882,-1.1884,-1.1886,0,-1.1175,-1.1232,-1.1344,-1.1405,-1.1432,-1.1485,-1.155,-1.1603,-1.1659,-1.1677,-1.1722,-1.1734,-1.1804,-1.1773,-1.1871,-1.1829,-1.1863,-1.1885,-1.1889,-1.1899,-1.1864,-1.1927,-1.2034,-1.2047,-1.1905,-1.1904,-1.1902,0,-1.1229,-1.1334,-1.1415,-1.1444,-1.1518,-1.1555,-1.1587,-1.164,-1.168,-1.1737,-1.1763,-1.1827,-1.1862,-1.1911,-1.194,-1.1914,-1.2035,-1.2006,-1.2053,-1.2052,-1.2079,-1.2078,-1.2195,-1.2099,-1.2099,-1.2098,-1.2098,0,-1.1326,-1.1394,-1.144,-1.149,-1.1566,-1.1593,-1.1668,-1.17,-1.1747,-1.1803,-1.1813,-1.1865,-1.1899,-1.1955,-1.1977,-1.2055,-1.2071,-1.2087,-1.2093,-1.2087,-1.2085,-1.2111,-1.2107,-1.2102,-1.2101,-1.21,-1.21,0,-1.1401,-1.1434,-1.1523,-1.1584,-1.1601,-1.1655,-1.1708,-1.1756,-1.1784,-1.1854,-1.1872,-1.1916,-1.1983,-1.2015,-1.2099,-1.2114,-1.2202,-1.2203,-1.2183,-1.2186,-1.223,-1.2226,-1.237,-1.239,-1.2279,-1.228,-1.2281,0,-1.1461,-1.1514,-1.1581,-1.1619,-1.1652,-1.1713,-1.1754,-1.1782,-1.1823,-1.189,-1.193,-1.1997,-1.2053,-1.2159,-1.2198,-1.2261,-1.2265,-1.231,-1.2275,-1.2267,-1.2267,-1.2264,-1.2269,-1.2318,-1.2319,-1.232,-1.232,0,-1.1565,-1.1579,-1.1637,-1.1701,-1.1749,-1.18,-1.1851,-1.1881,-1.1917,-1.1963,-1.2031,-1.2074,-1.2159,-1.2225,-1.2291,-1.2324,-1.2328,-1.2331,-1.2345,-1.2341,-1.2328,-1.2336,-1.2202,-1.2328,-1.2327,-1.2327,-1.2326,-1.2326,-1.1636,-1.1683,-1.1737,-1.1801,-1.1842,-1.1889,-1.1937,-1.197,-1.2028,-1.2099,-1.2111,-1.2184,-1.2237,-1.2326,-1.236,-1.2417,-1.2407,-1.2427,-1.2433,-1.2438,-1.2441,-1.2317,-1.2429,-1.2429,-1.2429,-1.2429,-1.2428,0,-1.1741,-1.1776,-1.1834,-1.1905,-1.1955,-1.1954,-1.2009,-1.2051,-1.2115,-1.2164,-1.2218,-1.2296,-1.236,-1.2404,-1.2469,-1.2506,-1.2509,-1.2522,-1.252,-1.2528,-1.2446,-1.2427,-1.2518,-1.2518,-1.2518,-1.2518,-1.2518,-1.2518,-1.1802,-1.1882,-1.1901,-1.2001,-1.2035,-1.2106,-1.2138,-1.2181,-1.222,-1.2307,-1.236,-1.2388,-1.2435,-1.2503,-1.2561,-1.2572,-1.2596,-1.2609,-1.262,-1.2543,-1.2534,-1.2525,-1.2508,-1.2614,-1.2614,-1.2697,-1.2698,-1.2699]},{"header":{"parameterUnit":"m.s-1","parameterCategory":1,"la1":30.2991,"la2":30.254,"lo1":-89.0895,"lo2":-89.0444,"dy":0.0017,"dx":0.0017,"nx":28,"ny":28,"refTime":"2024-02-17T09:00:00:Z","depth":0,"parameterNumber":3,"parameterNumberName":"V-component_of_WINDS"},"data":[0,0,0,0,0,0,0,0,0,0,0,0,0,0,0,0,0,0,0,0,0,0,0,0,0,0,0,0,0,0,0,0,0,0,0,0,0,0,0,0,0,0,0,0,0,0,0,0,0,0,0,0,0,0,0,0,0,0,-8.2895,-8.2896,0,-8.3041,-8.3042,-8.3044,-8.2971,-8.2967,-8.2963,-8.296,-8.3102,-8.3109,-8.3116,0,0,0,0,0,0,0,0,0,0,0,0,0,-8.2545,-8.2552,-8.2894,-8.2896,-8.2898,-8.304,-8.3042,-8.3044,-8.2971,-8.2967,-8.2962,-8.2958,-8.3099,-8.3108,-8.3117,0,0,0,0,0,0,0,0,0,0,0,0,0,-8.2694,-8.2554,-8.2894,-8.2879,-8.2879,-8.304,-8.3042,-8.3045,-8.2972,-8.2967,-8.2961,-8.2956,-8.3096,-8.3107,-8.3118,-8.33,0,0,-8.3152,-8.3156,0,0,0,0,0,0,0,0,-8.2686,-8.2707,-8.2879,-8.288,-8.2881,-8.2982,-8.2971,-8.313,-8.2974,-8.2937,-8.296,-8.2953,-8.3066,-8.3079,-8.3119,-8.3306,-8.3312,-8.3153,-8.3159,-8.3164,-8.3167,0,0,0,0,0,0,0,-8.2676,-8.27,-8.2952,-8.2882,-8.2883,-8.2863,-8.2878,-8.3001,-8.3031,-8.294,-8.2935,-8.2953,-8.3065,-8.3108,-8.3122,-8.3314,-8.3152,-8.3162,-8.3169,-8.3173,-8.3658,-8.3664,0,0,0,0,0,0,-8.2667,-8.2692,-8.2947,-8.2956,-8.2768,-8.2874,-8.289,-8.2955,-8.303,-8.3036,-8.2958,-8.2949,-8.3092,-8.3109,-8.3126,-8.3344,-8.3164,-8.3174,-8.318,-8.3651,-8.3659,-8.3666,0,0,0,0,0,0,-8.266,-8.269,-8.2941,-8.2823,-8.2854,-8.2886,-8.2959,-8.2961,-8.3004,-8.3044,-8.3048,-8.2997,-8.3089,-8.3111,-8.3258,-8.3348,-8.3179,-8.3189,-8.3644,-8.3654,-8.3662,-8.3781,0,0,0,0,0,0,-8.265,-8.2688,-8.276,-8.2825,-8.286,-8.3073,-8.2965,-8.2968,-8.3024,-8.3014,-8.3082,-8.3087,-8.3086,-8.3242,-8.3269,-8.336,-8.3198,-8.3636,-8.3648,-8.3659,-8.3769,-8.3794,-8.3814,0,0,0,0,0,-8.2638,-8.2785,-8.2764,-8.2795,-8.295,-8.3078,-8.3098,-8.3096,-8.3032,-8.3103,-8.3128,-8.3085,-8.3334,-8.3257,-8.3287,-8.3383,-8.363,-8.3645,-8.3659,-8.3759,-8.3789,-8.3814,0,0,0,0,0,0,-8.2727,-8.2794,-8.277,-8.2944,-8.3007,-8.3066,-8.3155,-8.3127,-8.3207,-8.3194,-8.3184,-8.32,-8.3353,-8.3382,-8.3296,-8.3562,-8.3472,-8.3493,-8.3538,-8.3567,-8.3589,-8.3578,-8.3207,0,0,0,0,0,-8.2767,-8.2868,-8.292,-8.3068,-8.3101,-8.3123,-8.3179,-8.3172,-8.3235,-8.326,-8.3296,-8.3357,-8.3448,-8.3509,-8.3595,-8.3773,-8.3786,-8.3854,-8.3876,-8.3894,-8.3912,-8.4008,-8.4039,-8.3712,-8.3712,-8.3712,0,0,-8.285,-8.2899,-8.2963,-8.3087,-8.3135,-8.3238,-8.3146,-8.3258,-8.3333,-8.3276,-8.3418,-8.3446,-8.3513,-8.3677,-8.375,-8.3706,-8.4005,-8.3912,-8.3927,-8.3935,-8.4026,-8.4057,-8.4084,-8.3722,-8.372,-8.3719,0,0,-8.3055,-8.3103,-8.3232,-8.3282,-8.3356,-8.337,-8.3401,-8.3465,-8.3483,-8.3625,-8.3584,-8.3672,-8.3831,-8.388,-8.3926,-8.415,-8.4113,-8.4178,-8.4295,-8.4389,-8.4414,-8.4437,-8.4517,-8.4546,-8.4196,-8.4196,-8.4196,0,-8.3148,-8.3304,-8.3301,-8.3418,-8.3473,-8.3428,-8.3558,-8.3605,-8.3703,-8.3741,-8.369,-8.3888,-8.393,-8.4104,-8.4159,-8.4198,-8.4231,-8.4171,-8.4412,-8.4434,-8.4455,-8.4531,-8.4561,-8.4203,-8.4203,-8.4202,-8.4201,0,-8.3416,-8.3524,-8.3619,-8.3718,-8.3783,-8.3905,-8.3919,-8.3985,-8.3972,-8.399,-8.4135,-8.4184,-8.428,-8.432,-8.4307,-8.4493,-8.4463,-8.4412,-8.4321,-8.4494,-8.4565,-8.4594,-8.4214,-8.4211,-8.4209,-8.4207,0,0,-8.3681,-8.3777,-8.3812,-8.3856,-8.3934,-8.4017,-8.4136,-8.4232,-8.4289,-8.4357,-8.4456,-8.4592,-8.4546,-8.4598,-8.459,-8.4672,-8.4846,-8.4611,-8.4612,-8.4653,-8.5053,-8.5091,-8.5125,-8.4822,-8.4828,-8.4832,-8.5047,0,-8.3891,-8.4104,-8.4104,-8.4299,-8.4399,-8.4357,-8.4461,-8.4519,-8.4539,-8.4624,-8.4645,-8.4741,-8.4673,-8.4704,-8.4784,-8.4808,-8.4926,-8.4792,-8.4912,-8.4917,-8.4898,-8.5162,-8.5203,-8.5404,-8.5075,-8.508,-8.5083,0,-8.4166,-8.4246,-8.4452,-8.4517,-8.4558,-8.4652,-8.474,-8.4823,-8.4887,-8.4895,-8.4955,-8.4934,-8.5053,-8.4958,-8.5121,-8.503,-8.5079,-8.5098,-8.5106,-8.5117,-8.5011,-8.5181,-8.5468,-8.5498,-8.5127,-8.5123,-8.512,0,-8.4339,-8.4498,-8.4642,-8.4681,-8.476,-8.4827,-8.4862,-8.4921,-8.4979,-8.5054,-8.5092,-8.5179,-8.5228,-8.5295,-8.5298,-8.5228,-8.5462,-8.5367,-8.5471,-8.5472,-8.5523,-8.552,-8.5822,-8.5554,-8.5553,-8.5553,-8.5552,0,-8.4575,-8.4702,-8.4722,-8.481,-8.4951,-8.4949,-8.5088,-8.5116,-8.5169,-8.5261,-8.5229,-8.5315,-8.5313,-8.54,-8.5403,-8.5537,-8.5558,-8.5567,-8.5567,-8.5571,-8.557,-8.5603,-8.5589,-8.5561,-8.5559,-8.5557,-8.5556,0,-8.4792,-8.4811,-8.4965,-8.5027,-8.5046,-8.5147,-8.5199,-8.5282,-8.5299,-8.5416,-8.5442,-8.5469,-8.5569,-8.5579,-8.5695,-8.5696,-8.5859,-8.5843,-8.5839,-8.5836,-8.594,-8.593,-8.6274,-8.6319,-8.6021,-8.6024,-8.6026,0,-8.4942,-8.504,-8.5113,-8.5174,-8.5214,-8.5311,-8.5371,-8.5372,-8.5435,-8.5515,-8.5588,-8.5686,-8.5765,-8.5927,-8.5955,-8.6043,-8.6029,-8.6143,-8.6042,-8.6043,-8.6031,-8.6025,-8.6035,-8.6163,-8.6166,-8.6169,-8.6171,0,-8.5206,-8.521,-8.5299,-8.5392,-8.5464,-8.5536,-8.5603,-8.5654,-8.5663,-8.5734,-8.5839,-8.59,-8.602,-8.6117,-8.6204,-8.6236,-8.6206,-8.6203,-8.6232,-8.6237,-8.6231,-8.6236,-8.5893,-8.6195,-8.6193,-8.6191,-8.619,-8.6189,-8.5394,-8.5479,-8.5545,-8.5645,-8.5696,-8.576,-8.5841,-8.587,-8.5957,-8.6057,-8.6051,-8.6166,-8.6226,-8.634,-8.6379,-8.6467,-8.6428,-8.647,-8.6481,-8.6491,-8.6502,-8.6217,-8.6483,-8.6482,-8.6481,-8.6481,-8.648,0,-8.5656,-8.5697,-8.5789,-8.5886,-8.5964,-8.593,-8.6003,-8.607,-8.6172,-8.6232,-8.6311,-8.643,-8.6524,-8.656,-8.6651,-8.6714,-8.6702,-8.6738,-8.6734,-8.6742,-8.6531,-8.6498,-8.6746,-8.6746,-8.6746,-8.6746,-8.6746,-8.6746,-8.5802,-8.5945,-8.5957,-8.6124,-8.6162,-8.6277,-8.6321,-8.6379,-8.6427,-8.6563,-8.6642,-8.6665,-8.6715,-8.681,-8.6894,-8.6901,-8.6936,-8.6979,-8.698,-8.6783,-8.6756,-8.6731,-8.6699,-8.6986,-8.6987,-8.7183,-8.7185,-8.7187]}]]